Content
SEND FEEDBACK

Daily
Averages
Monthly
Summary
United States of America

GRAFTON, ILLINOIS


Home > North America > United States > Illinois
Elevation: 400 feet     Latitude: 38 58N     Longitude: 090 26W

WEATHER
 
SELECT A DAY
Number of Records: 169,546;   Date Range: 10/8/98 - 9/30/14
 
SHARE

PRINT THIS DATA

[ ← Previous Day ]
WEATHER ALMANAC - APRIL 21, 2013
[ Next Day → ]
[ °C ]   °F
Weather ElementAverageHighLow
Temperature51.3 °F62.1 °F (3:54 pm)41 °F (3:54 am)
Dewpoint37.4 °F43 °F (10:54 pm)32 °F (8:54 am)
Humidity60.2 %77 % (11:54 pm)42 % (2:54 pm)
Barometer30.33 in30.42 in (7:54 am)30.25 in (4:54 pm)
Wind Speed11 mph15 mph (11:54 am)
Wind Gust20.7 mph (3:54 pm)
Weather ElementAverage
Visibility10 mi
Wind DirectionESE (117.4 °)

Weather ElementTotal
Precipitation---
Heating Degree Days13.5 (Base 65)
Growing Degree Days1.6 (Base 50)
Averaged from 23 records on April 21, 2013
WEATHER CONDITIONS BREAKOUT
WIND DIRECTION BREAKOUT
WEATHER BY HOUR - APRIL 21, 2013
[ °C ]   °F
Local TimeTemperatureDewpointHumidityBarometerVisibilityWind DirectionWind SpeedGust SpeedPrecipitationEventsConditions
1:54 AM43.0 °F34.0 °F71 %30.34 in10.0 miESE (110°)11.5 mphClear
2:54 AM43.0 °F34.0 °F71 %30.35 in10.0 miESE (110°)10.4 mphClear
3:54 AM41.0 °F34.0 °F76 %30.36 in10.0 miEast (100°)9.2 mphClear
4:54 AM42.1 °F34.0 °F73 %30.37 in10.0 miESE (110°)10.4 mphPartly Cloudy
5:54 AM42.1 °F33.1 °F70 %30.38 in10.0 miESE (110°)11.5 mphScattered Clouds
6:54 AM42.1 °F33.1 °F70 %30.41 in10.0 miESE (110°)10.4 mphMostly Cloudy
7:54 AM43.0 °F33.1 °F68 %30.42 in10.0 miESE (110°)11.5 mphMostly Cloudy
8:54 AM46.0 °F32.0 °F58 %30.42 in10.0 miSE (130°)12.7 mphPartly Cloudy
9:54 AM48.9 °F34.0 °F56 %30.42 in10.0 miSE (140°)13.8 mphClear
10:54 AM52.0 °F36.0 °F54 %30.41 in10.0 miESE (120°)11.5 mphClear
11:54 AM55.0 °F36.0 °F49 %30.39 in10.0 miSE (140°)15.0 mphClear
12:54 PM57.0 °F37.0 °F47 %30.36 in10.0 miSE (140°)10.4 mphClear
1:54 PM60.1 °F39.0 °F46 %30.33 in10.0 miSE (140°)10.4 mphPartly Cloudy
2:54 PM61.0 °F37.9 °F42 %30.30 in10.0 miESE (120°)9.2 mphClear
3:54 PM62.1 °F41.0 °F46 %30.27 in10.0 miESE (110°)15.0 mph20.7 mphClear
4:54 PM61.0 °F41.0 °F48 %30.25 in10.0 miESE (110°)13.8 mph19.6 mphPartly Cloudy
5:54 PM60.1 °F41.0 °F49 %30.26 in10.0 miESE (120°)13.8 mphOvercast
6:54 PM59.0 °F41.0 °F51 %30.25 in10.0 miESE (110°)12.7 mphPartly Cloudy
7:54 PM55.9 °F42.1 °F60 %30.26 in10.0 miESE (120°)9.2 mphClear
8:54 PM55.0 °F41.0 °F59 %30.27 in10.0 miSE (130°)8.1 mphClear
9:54 PM52.0 °F42.1 °F69 %30.29 in10.0 miESE (110°)5.8 mphClear
10:54 PM51.1 °F43.0 °F74 %30.28 in10.0 miEast (100°)9.2 mphClear
11:54 PM48.0 °F41.0 °F77 %30.27 in10.0 miEast (100°)8.1 mphClear
Hourly data recorded from KSET, located miles away from Grafton, Illinois







STORIES FROM OUR PARTNERS